Change the Weather History Date:

Sunday, July 21, 2013

  Actual Average Record
Temperature  
Mean Temperature 59 °F -  
Max Temperature 76 °F 80 °F 96 °F (1987)
Min Temperature 42 °F 52 °F 35 °F (1992)
Degree Days  
Heating Degree Days 6    
Growing Degree Days 9 (Base 50)    
Moisture  
Dew Point 44 °F    
Average Humidity 56    
Maximum Humidity 91    
Minimum Humidity 27    
Precipitation  
Precipitation 0.00 in - - ()
Sea Level Pressure  
Sea Level Pressure 30.00 in    
Wind  
Wind Speed 2 mph (East)    
Max Wind Speed 7 mph    
Max Gust Speed -    
Visibility 10 miles    
Events      
Averages and records for this station are not official NWS values.
T = Trace of Precipitation, MM = Missing Value Source: NWS Daily Summary

Daily Weather History Graph

Daily Weather History Graph

Search for Another Location

Airport or City:

Trip Planner

Search our weather history database for the weather conditions in past years. The results will help you decide how hot, cold, wet, or windy it might be!

Date:

Astronomy

Jul. 21, 2013 Rise Set
Actual Time 6:17 AM EDT 9:17 PM EDT
Civil Twilight 5:43 AM EDT 9:52 PM EDT
Nautical Twilight 4:59 AM EDT 10:36 PM EDT
Astronomical Twilight 4:06 AM EDT 11:28 PM EDT
Moon 8:13 PM EDT (7/21) 5:03 AM EDT (7/21)
Length of Visible Light 16h 09m
Length of Day
15h 00m
Waxing Gibbous, 98% of the Moon is Illuminated
Jul 21
Waxing Gibbous
Jul 22
Full
Jul 29
Last Quarter
Aug 6
New
Aug 14
First Quarter

Hourly Weather History & Observations

Time (EDT) Temp. Dew Point Humidity Pressure Visibility Wind Dir Wind Speed Gust Speed Precip Events Conditions
12:15 AM 51.6 °F 45.0 °F 78% 30.00 in 10.0 mi NNW 4.6 mph - N/A   Clear
12:35 AM 51.4 °F 46.0 °F 82% 29.99 in 10.0 mi Calm Calm - N/A   Clear
12:54 AM 51.4 °F 46.8 °F 84% 29.99 in 10.0 mi Calm Calm - N/A   Clear
1:15 AM 51.4 °F 47.1 °F 85% 30.00 in 10.0 mi Calm Calm - N/A   Clear
1:35 AM 51.4 °F 46.4 °F 83% 30.01 in 10.0 mi Calm Calm - N/A   Clear
1:54 AM 51.4 °F 46.9 °F 85% 30.01 in 10.0 mi Calm Calm - N/A   Clear
2:15 AM 48.7 °F 44.6 °F 86% 30.01 in 10.0 mi Calm Calm - N/A   Clear
2:35 AM 45.3 °F 41.7 °F 87% 30.01 in 10.0 mi Calm Calm - N/A   Clear
2:54 AM 49.1 °F 45.0 °F 86% 30.01 in 10.0 mi Calm Calm - N/A   Clear
3:15 AM 49.1 °F 44.8 °F 85% 30.01 in 10.0 mi Calm Calm - N/A   Clear
3:35 AM 45.1 °F 41.9 °F 88% 30.00 in 10.0 mi Calm Calm - N/A   Clear
3:54 AM 44.8 °F 41.9 °F 90% 30.00 in 10.0 mi Calm Calm - N/A   Clear
4:15 AM 44.6 °F 41.9 °F 90% 30.00 in 10.0 mi Calm Calm - N/A   Clear
4:35 AM 45.1 °F 41.9 °F 88% 29.99 in 10.0 mi Calm Calm - N/A   Clear
4:54 AM 43.9 °F 40.8 °F 89% 30.00 in 10.0 mi Calm Calm - N/A   Clear
5:15 AM 44.4 °F 41.0 °F 88% 30.00 in 10.0 mi Calm Calm - N/A   Clear
5:35 AM 44.2 °F 41.4 °F 90% 30.00 in 10.0 mi Calm Calm - N/A   Clear
5:54 AM 43.9 °F 41.0 °F 90% 30.01 in 10.0 mi Calm Calm - N/A   Clear
6:15 AM 42.8 °F 40.1 °F 90% 30.01 in 10.0 mi Calm Calm - N/A   Clear
6:35 AM 43.0 °F 40.6 °F 91% 30.02 in 10.0 mi Calm Calm - N/A   Clear
6:54 AM 43.9 °F 41.4 °F 91% 30.02 in 10.0 mi Calm Calm - N/A   Clear
7:15 AM 45.7 °F 43.2 °F 91% 30.02 in 10.0 mi Calm Calm - N/A   Scattered Clouds
7:35 AM 50.2 °F 47.1 °F 89% 30.02 in 10.0 mi Calm Calm - N/A   Scattered Clouds
7:54 AM 53.2 °F 48.9 °F 85% 30.02 in 10.0 mi Calm Calm - N/A   Scattered Clouds
8:15 AM 56.5 °F 50.0 °F 79% 30.02 in 10.0 mi NNE 4.6 mph - N/A   Scattered Clouds
8:35 AM 56.5 °F 49.3 °F 77% 30.02 in 10.0 mi East 3.5 mph - N/A   Clear
8:54 AM 59.0 °F 49.3 °F 70% 30.03 in 10.0 mi East 3.5 mph - N/A   Clear
9:15 AM 61.5 °F 47.8 °F 61% 30.03 in 10.0 mi SE 5.8 mph - N/A   Mostly Cloudy
9:34 AM 61.7 °F 45.7 °F 56% 30.03 in 10.0 mi Calm Calm - N/A   Mostly Cloudy
9:55 AM 62.8 °F 45.1 °F 53% 30.03 in 10.0 mi SE 3.5 mph - N/A   Scattered Clouds
10:15 AM 63.1 °F 43.5 °F 49% 30.04 in 10.0 mi Calm Calm - N/A   Mostly Cloudy
10:34 AM 65.7 °F 43.0 °F 44% 30.04 in 10.0 mi SE 4.6 mph - N/A   Mostly Cloudy
10:55 AM 67.5 °F 41.4 °F 39% 30.04 in 10.0 mi SSE 3.5 mph - N/A   Overcast
11:15 AM 69.1 °F 41.7 °F 37% 30.03 in 10.0 mi Calm Calm - N/A   Scattered Clouds
11:34 AM 70.2 °F 43.0 °F 37% 30.03 in 10.0 mi SW 3.5 mph - N/A   Scattered Clouds
11:55 AM 71.1 °F 43.0 °F 36% 30.04 in 10.0 mi Calm Calm - N/A   Overcast
12:15 PM 71.6 °F 41.4 °F 33% 30.03 in 10.0 mi NE 3.5 mph - N/A   Overcast
12:34 PM 71.6 °F 39.6 °F 31% 30.03 in 10.0 mi NNW 3.5 mph - N/A   Overcast
12:55 PM 71.6 °F 40.5 °F 32% 30.03 in 10.0 mi NNE 4.6 mph - N/A   Overcast
1:15 PM 71.6 °F 36.9 °F 28% 30.03 in 10.0 mi ENE 3.5 mph - N/A   Overcast
1:34 PM 71.6 °F 37.9 °F 29% 30.03 in 10.0 mi Calm Calm - N/A   Overcast
1:55 PM 71.6 °F 38.1 °F 30% 30.03 in 10.0 mi Calm Calm - N/A   Overcast
2:15 PM 71.6 °F 39.9 °F 32% 30.03 in 10.0 mi Calm Calm - N/A   Overcast
2:34 PM 73.6 °F 39.6 °F 29% 30.02 in 10.0 mi NE 4.6 mph - N/A   Overcast
2:55 PM 71.6 °F 39.6 °F 31% 30.01 in 10.0 mi NNE 3.5 mph - N/A   Overcast
3:15 PM 73.6 °F 40.6 °F 30% 30.00 in 10.0 mi Calm Calm - N/A   Overcast
3:34 PM 74.3 °F 40.1 °F 29% 30.00 in 10.0 mi Calm Calm - N/A   Mostly Cloudy
3:55 PM 73.4 °F 37.9 °F 28% 30.00 in 10.0 mi NE 3.5 mph - N/A   Overcast
4:15 PM 76.6 °F 39.9 °F 27% 29.99 in 10.0 mi NE 4.6 mph - N/A   Mostly Cloudy
4:34 PM 76.6 °F 43.3 °F 30% 29.98 in 10.0 mi NNE 4.6 mph - N/A   Mostly Cloudy
4:55 PM 76.6 °F 44.2 °F 32% 29.98 in 10.0 mi Calm Calm - N/A   Mostly Cloudy
5:15 PM 76.6 °F 44.2 °F 32% 29.97 in 10.0 mi ESE 6.9 mph - N/A   Scattered Clouds
5:34 PM 76.6 °F 43.7 °F 31% 29.97 in 10.0 mi ENE 3.5 mph - N/A   Clear
5:55 PM 76.6 °F 45.3 °F 33% 29.96 in 10.0 mi ESE 5.8 mph - N/A   Mostly Cloudy
6:15 PM 76.6 °F 45.5 °F 33% 29.96 in 10.0 mi ESE 5.8 mph - N/A   Overcast
6:34 PM 76.6 °F 45.5 °F 33% 29.96 in 10.0 mi East 5.8 mph - N/A   Scattered Clouds
6:55 PM 76.6 °F 45.9 °F 34% 29.95 in 10.0 mi ESE 5.8 mph - N/A   Clear
7:15 PM 74.3 °F 45.0 °F 35% 29.96 in 10.0 mi East 6.9 mph - N/A   Clear
7:34 PM 74.3 °F 46.8 °F 37% 29.96 in 10.0 mi East 5.8 mph - N/A   Clear
7:55 PM 72.7 °F 46.9 °F 40% 29.96 in 10.0 mi East 4.6 mph - N/A   Clear
8:15 PM 71.6 °F 47.1 °F 42% 29.96 in 10.0 mi East 3.5 mph - N/A   Clear
8:34 PM 71.6 °F 48.2 °F 43% 29.95 in 10.0 mi ESE 4.6 mph - N/A   Clear
8:55 PM 71.6 °F 49.1 °F 45% 29.95 in 10.0 mi East 5.8 mph - N/A   Clear
9:14 PM 71.6 °F 48.6 °F 44% 29.95 in 10.0 mi East 4.6 mph - N/A   Clear
9:34 PM 70.0 °F 50.4 °F 50% 29.95 in 10.0 mi Calm Calm - N/A   Scattered Clouds
9:55 PM 69.1 °F 51.4 °F 53% 29.95 in 10.0 mi East 3.5 mph - N/A   Clear
10:14 PM 69.1 °F 50.4 °F 51% 29.95 in 10.0 mi SE 4.6 mph - N/A   Scattered Clouds
10:35 PM 70.2 °F 50.4 °F 49% 29.96 in 10.0 mi ESE 5.8 mph - N/A   Scattered Clouds
10:55 PM 71.6 °F 50.0 °F 46% 29.95 in 10.0 mi ESE 6.9 mph - N/A   Mostly Cloudy
11:14 PM 71.6 °F 50.0 °F 46% 29.95 in 10.0 mi ESE 4.6 mph - N/A   Overcast
11:35 PM 71.6 °F 50.5 °F 47% 29.95 in 10.0 mi SE 3.5 mph - N/A   Overcast
11:55 PM 69.4 °F 50.4 °F 51% 29.95 in 10.0 mi SSE 4.6 mph - N/A   Scattered Clouds